Tracking 35055 objects as of 18-Aug-2026
HD Live streaming from Space Station
objects crossing your sky now

COSMOS 423


COSMOS 423 is no longer on orbit


NORAD ID: 5246
Int'l Code: 1971-047A
Launch date: May 27, 1971
Source: Commonwealth of Independent States (former USSR) (CIS)
Launch site: PLESETSK MISSILE AND SPACE COMPLEX (PKMTR)
Decay date: 1971-11-26
Your satellite tracking list
Your tracking list is empty




NASA's NSSDC Master Catalog

Two Line Element Set (TLE):
1 05246U 71047  A 71330.14901251  .06038232 +00000-0 +00000-0 0  9997
2 05246 071.0141 288.4317 0003390 079.7116 280.4453 16.40295219028850
Source of the keplerian elements: AFSPC